Dewpoint
23 21 19 20 21 17 16 17 17 19 17 18 19 20 25 27 30 27 26 25 29 36 44 50 59 61 63 65 68 69 68 70 67 64 64 63 62 63 63 65 67 68 68 68
20 20 21 21 22 20 20 19 19 19 16 19 20 19 21 28 31 35 34 36 39 44 44 43 53 62 63 64 67 69 69 70 68 65 65 65 64 63 63 64 67 68 68 69
18 18 20 19 18 20 20 20 19 17 17 19 21 20 26 28 31 35 38 41 45 53 50 41 42 54 61 62 62 66 70 71 70 69 68 67 67 67 66 66 66 68 68 69
15 15 16 18 18 18 17 18 18 17 19 13 22 17 28 29 32 34 35 36 40 52 57 53 46 44 54 59 61 62 68 69 69 70 68 69 64 63 64 66 67 68 69 68
17 17 18 20 17 18 15 21 21 21 20 20 19 18 26 30 31 33 36 38 39 47 58 60 58 56 55 56 58 61 64 67 69 68 69 66 68 66 67 68 69 70 69 68
19 20 19 20 20 19 19 20 23 25 22 17 21 21 23 27 32 35 37 38 44 46 50 59 62 61 61 59 58 60 64 66 67 67 67 68 68 68 66 67 67 68 67 66
21 19 21 22 18 18 19 24 15 14 14 13 23 21 28 31 34 36 38 46 53 53 53 53 54 60 63 63 62 61 64 65 66 67 68 68 69 70 69 70 68 67 64 65
19 18 22 26 18 18 21 23 18 13 14 12 20 18 24 32 33 36 49 52 53 54 54 56 58 59 61 65 66 66 67 68 70 69 67 67 67 67 66 66 65 66 66 65
22 19 25 26 26 22 24 22 23 24 23 17 16 22 27 29 37 40 49 52 53 54 55 56 58 60 61 64 68 69 70 66 64 65 63 63 63 64 65 65 66 67 64 62
27 25 24 28 26 28 26 23 25 26 21 18 17 21 24 35 44 48 50 51 51 52 53 55 58 61 62 63 68 69 65 64 63 61 62 62 62 62 63 64 63 63 62 60
34 30 26 28 29 28 27 27 28 29 26 21 20 23 35 47 48 47 47 48 48 49 52 56 59 61 62 63 66 68 62 62 62 61 62 63 62 60 61 60 59 61 59 58
35 35 26 24 29 31 29 29 30 28 26 29 27 24 45 45 43 44 45 46 49 52 53 56 57 59 63 64 66 65 62 62 62 63 63 63 61 60 60 59 58 59 59 58
35 32 22 23 27 31 29 30 31 34 35 28 23 24 41 41 41 42 44 46 50 52 53 54 56 58 61 62 63 64 62 61 63 62 62 63 62 60 59 57 58 57 56 55
44 36 29 20 22 32 28 27 30 30 27 25 24 25 32 40 40 40 42 43 41 39 41 42 44 56 59 61 62 63 62 61 62 62 61 61 61 60 59 58 58 58 57 55
40 32 33 31 29 30 30 29 29 30 31 29 28 30 40 40 41 41 41 41 39 38 40 43 44 47 55 60 61 62 62 61 61 61 61 61 61 60 59 59 57 57 57 56
40 31 37 29 29 32 31 30 31 30 31 31 35 36 41 41 41 40 39 39 40 41 43 44 46 48 48 59 60 61 62 61 61 61 61 61 61 59 58 59 57 58 57 56
36 36 33 26 32 29 23 25 27 37 39 39 35 39 40 41 41 39 38 41 40 41 42 45 45 48 50 55 60 61 62 63 62 61 61 60 59 58 58 59 58 57 57 56
38 37 35 28 30 21 27 33 31 35 38 39 41 41 42 44 44 39 37 39 39 39 41 42 43 48 53 55 58 60 62 62 62 61 61 58 58 59 59 60 59 58 56 55
37 37 32 29 27 28 29 32 33 34 33 38 39 41 40 39 44 44 36 39 41 42 42 43 44 50 55 54 55 55 58 61 60 60 61 59 59 59 59 58 58 55 54 52
37 38 34 31 25 23 32 33 36 38 30 35 35 34 34 34 32 34 39 40 41 43 43 44 43 46 49 52 54 54 54 58 60 59 60 60 60 60 58 56 54 53 52 50
30 33 31 30 27 29 32 34 37 31 35 41 39 38 37 36 37 41 42 42 42 41 41 41 41 43 47 52 53 53 54 55 60 60 60 59 59 56 55 53 52 52 50 47
28 28 30 32 29 26 34 30 29 37 40 37 35 35 34 34 34 35 37 39 40 39 39 37 39 42 50 51 51 52 54 59 61 61 55 53 52 54 52 51 51 51 48 46
29 33 31 34 32 38 37 36 38 41 36 34 35 35 34 32 32 33 34 36 37 39 38 37 38 42 47 51 52 52 56 60 60 56 52 51 49 45 47 50 47 44 45 41
34 34 32 32 33 33 34 34 32 31 34 35 34 34 34 35 35 35 35 35 36 37 38 39 43 44 46 48 50 55 59 60 58 53 52 49 45 44 43 41 41 41 41 40
33 33 33 33 33 29 26 29 30 32 33 33 34 34 34 35 35 35 35 37 37 39 41 43 45 47 48 49 53 58 58 58 55 53 50 45 44 44 42 41 41 39 39 39
33 34 29 27 31 30 30 31 32 33 34 37 38 38 38 38 38 38 37 38 39 39 43 44 48 51 49 51 57 57 56 56 54 51 50 48 44 43 42 39 39 38 38 37
Lifted_Index
7 6 5 6 6 5 5 4 4 4 4 3 3 2 2 2 1 1 1 1 1 1 0 -1 -2 -4 -4 -5 -6 -6 -6 -6 -5 -5 -5 -5 -4 -4 -4 -5 -5 -5 -5 -5
6 6 5 6 5 5 4 4 4 4 4 4 3 2 2 1 1 1 1 1 0 0 0 -0 -1 -2 -3 -4 -5 -6 -6 -6 -5 -5 -5 -5 -5 -4 -5 -5 -5 -5 -5 -5
5 5 5 5 5 4 4 4 4 4 4 4 3 3 2 1 1 1 1 0 -0 -1 -1 -0 0 -0 -2 -3 -4 -5 -5 -6 -5 -5 -5 -5 -5 -5 -5 -5 -6 -6 -5 -5
5 5 5 5 4 4 4 4 4 4 4 4 3 2 2 1 1 0 0 0 -0 -2 -3 -2 -0 0 -1 -2 -2 -3 -4 -5 -5 -5 -5 -6 -6 -6 -6 -6 -6 -6 -5 -5
5 5 5 5 4 4 4 4 4 4 4 3 3 2 2 1 1 1 1 0 0 -1 -3 -4 -3 -2 -2 -2 -2 -2 -3 -4 -5 -5 -5 -6 -6 -7 -7 -6 -6 -6 -5 -5
5 5 5 4 4 4 4 4 4 3 3 3 3 2 2 2 2 2 1 1 -0 -1 -3 -4 -5 -4 -4 -3 -3 -3 -3 -4 -5 -5 -5 -6 -6 -6 -6 -6 -5 -5 -4 -4
5 5 5 4 4 4 4 4 3 2 2 2 2 2 2 2 3 2 1 -0 -1 -2 -3 -3 -4 -5 -5 -5 -5 -4 -5 -5 -5 -5 -5 -5 -5 -5 -5 -4 -4 -4 -4 -4
4 4 5 4 4 4 4 4 3 2 1 2 2 2 3 3 3 2 0 -1 -2 -2 -3 -3 -4 -4 -6 -7 -7 -6 -6 -7 -6 -6 -5 -5 -4 -3 -3 -3 -3 -3 -4 -5
4 4 4 4 4 4 4 4 3 3 2 2 2 3 3 3 2 1 -0 -1 -2 -2 -2 -3 -4 -4 -5 -7 -7 -8 -8 -7 -7 -6 -5 -4 -3 -2 -1 -2 -2 -3 -4 -5
4 4 4 4 4 3 4 4 4 3 3 2 2 3 3 2 1 1 -0 -1 -1 -1 -2 -3 -4 -4 -5 -6 -7 -8 -8 -7 -7 -6 -5 -4 -3 -1 -0 -0 -1 -2 -3 -4
4 4 3 4 4 3 4 4 4 3 3 2 3 3 3 2 2 1 1 0 0 0 -0 -2 -3 -4 -4 -5 -6 -7 -8 -8 -7 -6 -5 -4 -2 -1 1 1 0 -1 -2 -2
5 4 4 4 4 4 4 4 4 4 3 3 3 3 4 3 3 2 1 1 0 0 -0 -1 -2 -3 -3 -4 -5 -6 -7 -7 -6 -5 -4 -3 -1 -0 0 0 0 0 0 0
6 5 4 4 4 4 4 4 5 4 4 3 3 4 4 4 3 2 1 1 0 0 -0 -0 -1 -1 -2 -3 -4 -5 -6 -6 -5 -4 -3 -2 -1 -1 -1 -1 0 1 2 2
6 5 5 5 5 5 5 5 5 5 4 4 4 4 4 4 3 2 2 1 0 0 0 1 1 0 -1 -2 -3 -3 -4 -4 -4 -3 -2 -1 -1 -2 -1 -0 1 3 3 4
6 5 5 5 5 5 5 5 5 5 5 5 5 4 4 3 3 2 1 1 1 0 1 2 3 3 1 -0 -1 -1 -2 -3 -3 -3 -2 -2 -2 -2 -1 0 2 3 4 4
6 5 5 5 5 5 5 5 5 5 5 4 4 4 3 3 2 2 1 1 1 1 2 3 4 4 3 1 0 -1 -1 -2 -2 -3 -2 -2 -2 -2 -1 0 2 3 3 3
6 5 5 4 4 5 5 5 5 4 4 3 3 3 3 3 2 2 2 2 2 2 3 4 5 5 4 2 1 0 -1 -1 -2 -2 -2 -2 -2 -1 -1 0 1 2 3 4
6 5 5 4 4 4 5 5 5 4 4 3 3 3 3 3 3 3 3 3 3 3 4 5 5 5 4 3 2 1 -0 -1 -2 -2 -2 -2 -2 -1 -0 0 1 2 3 5
6 6 5 4 4 4 4 5 5 4 4 4 4 4 3 3 3 3 4 4 5 5 5 5 5 5 4 4 3 2 0 -1 -2 -2 -2 -2 -2 -1 -0 0 1 3 5 6
6 6 5 5 4 4 5 5 5 5 5 5 5 4 4 4 4 4 5 5 5 6 6 6 6 5 5 4 3 2 1 -1 -2 -2 -2 -2 -2 -1 -1 1 2 4 6 7
5 5 5 5 4 5 5 6 5 5 5 5 5 5 5 5 5 5 5 6 6 6 6 6 6 5 4 4 3 2 0 -1 -2 -2 -2 -2 -2 -1 -0 2 4 5 7 8
5 5 5 5 5 5 6 6 6 6 6 6 6 6 6 6 6 6 6 6 6 6 6 6 6 5 3 3 2 2 0 -1 -2 -2 -2 -1 -1 0 2 4 5 7 8 9
5 6 6 6 6 6 7 7 7 7 7 7 7 7 7 7 7 7 7 7 6 6 5 5 5 4 3 2 2 1 -0 -2 -2 -1 -1 -1 1 3 5 6 7 8 9 10
6 6 6 6 7 7 8 9 9 9 8 8 8 8 8 8 8 7 7 6 6 5 4 3 2 2 2 2 2 0 -1 -2 -1 -1 -0 0 2 5 6 7 8 9 10 10
7 7 7 7 8 9 9 9 9 9 8 8 8 8 7 7 7 6 6 6 5 4 3 2 1 1 1 1 1 -0 -1 -1 -1 -0 0 1 3 5 6 8 9 10 10 10
8 8 8 8 9 10 10 9 9 8 8 7 7 7 6 6 6 5 5 5 5 4 2 1 1 0 1 1 -0 -1 -1 -1 -0 0 1 2 3 5 7 8 9 10 10 10